INTELSAT 901 (IS-901) (26824 NORAD) Tracking and Keplerian Element Data

This shows tracking and keplerian element data for the satellite.

Feedback or suggestion? Click here.




ElementValue
Catalog26824
NameINTELSAT 901 (IS-901)
Epoch Orbit1409
Epoch Day12.86374
Epoch Year2024
RAAN258.1395
Inclination0.0559
Eccentricity4.99E-05
Argument of Perigee50.2102
Mean Anonmoly86.94
Mean Motion1.00269123
Decay Rate-1.93E-06
L11 26824U 01024A 24012.86374000 -.00000193 00000+0 00000+0 0 9998
L22 26824 0.0559 258.1395 0000499 50.2102 86.9400 1.00269123 14093



Live tracking and technical data element details for INTELSAT 901 (IS-901) (NORAD 26824). INTELSAT 901 (IS-901) can be tracked NOW for your location showing map with azimuth and elevation plus other details from your city location.







IsCatalogInMostPopularTable: catalog: 26824, numindb: 753
Update: records affected: 1



GetName: 26824 INTELSAT 901 (IS-901)

Hit Count: updated at: Fri, 19 Apr 2024 11:03:56 GMT